PU2ONU-13 Weather Reports


Display with metric or nautical units.
time (UTC)temp
F
wind
direction
speed
MPH
gust
MPH
rain 1hr
in
rain 24hr
in
rain mn
in
humidity
%
barometer
mb
20260505070012 80 97 1.0 1.0 0.00 0.00 0.00 47 1020.0
20260505064013 82 97 1.0 1.0 0.00 0.00 0.00 45 1020.0
20260505062013 81 96 1.0 1.0 0.00 0.00 0.00 45 1021.0
20260505060013 81 96 1.0 1.0 0.00 0.00 0.00 46 1020.0
20260505054013 82 80 1.0 1.0 0.00 0.00 0.00 44 1020.0
20260505052014 82 83 1.0 1.0 0.00 0.00 0.00 45 1021.0
20260505040013 83 94 1.0 1.0 0.00 0.00 0.00 44 1020.0
20260505034013 84 94 1.0 1.0 0.00 0.00 0.00 43 1020.0
20260505032013 84 95 1.0 1.0 0.00 0.00 0.00 43 1021.0
20260505030013 84 95 1.0 1.0 0.00 0.00 0.00 44 1020.0
20260505024013 84 95 1.0 1.0 0.00 0.00 0.00 43 1020.0
20260505022012 84 89 1.0 1.0 0.00 0.00 0.00 43 1021.0
20260505014014 85 89 1.0 1.0 0.00 0.00 0.00 44 1020.0
20260505012013 85 87 1.0 1.0 0.00 0.00 0.00 42 1021.0
20260505010013 86 87 1.0 1.0 0.00 0.00 0.00 42 1020.0
20260505004013 86 87 1.0 1.0 0.00 0.00 0.00 42 1020.0
20260505000013 87 89 1.0 2.0 0.00 0.00 0.00 42 1019.0
20260504234013 87 100 1.0 2.0 0.00 0.00 0.00 41 1019.0
20260504232013 88 90 1.0 2.0 0.00 0.00 0.00 41 1020.0
20260504230013 88 90 1.0 2.0 0.00 0.00 0.00 41 1019.0
20260504224013 88 90 1.0 2.0 0.00 0.00 0.00 41 1019.0
20260504222014 89 89 1.0 2.0 0.00 0.00 0.00 40 1019.0
20260504220013 88 89 1.0 2.0 0.00 0.00 0.00 41 1018.0
20260504214012 89 89 1.0 2.0 0.00 0.00 0.00 40 1018.0
20260504210013 91 71 1.0 1.0 0.00 0.00 0.00 39 1017.0
20260504204012 88 71 1.0 1.0 0.00 0.00 0.00 41 1017.0
20260504202013 88 18 1.0 1.0 0.00 0.00 0.00 38 1017.0
20260504194013 87 18 1.0 1.0 0.00 0.00 0.00 37 1016.0
20260504192014 86 340 0.0 1.0 0.00 0.00 0.00 38 1018.0
20260504190014 86 340 1.0 2.0 0.00 0.00 0.00 38 1016.0
20260504184013 87 333 0.0 0.0 0.00 0.00 0.00 38 1016.0
20260504182013 87 333 1.0 1.0 0.00 0.00 0.00 38 1018.0
20260504180015 85 333 2.0 3.0 0.00 0.00 0.00 40 1017.0
20260504174016 85 322 0.0 0.0 0.00 0.00 0.00 41 1017.0
20260504172013 85 322 1.0 1.0 0.00 0.00 0.00 40 1018.0